TimeAKDT,TemperatureF,Dew PointF,Humidity,Sea Level PressureIn,VisibilityMPH,Wind Direction,Wind SpeedMPH,Gust SpeedMPH,PrecipitationIn,Events,Conditions,WindDirDegrees,DateUTC
12:16 AM,10.4,3.2,73,29.39,3.0,NE,17.3,24.2,N/A,,Overcast,40,2012-10-16 08:16:00
12:36 AM,10.4,3.2,73,29.39,3.0,NE,17.3,23.0,N/A,,Overcast,40,2012-10-16 08:36:00
12:56 AM,10.4,3.2,73,29.39,4.0,NE,19.6,24.2,N/A,,Mostly Cloudy,50,2012-10-16 08:56:00
1:16 AM,10.4,3.2,73,29.39,3.0,NE,19.6,27.6,N/A,,Overcast,50,2012-10-16 09:16:00
1:36 AM,10.4,3.2,73,29.40,3.0,ENE,19.6,24.2,N/A,,Overcast,60,2012-10-16 09:36:00
1:56 AM,10.4,3.2,73,29.40,3.0,NE,17.3,24.2,N/A,,Overcast,50,2012-10-16 09:56:00
2:16 AM,10.4,3.2,73,29.40,5.0,NE,20.7,24.2,N/A,,Overcast,50,2012-10-16 10:16:00
2:36 AM,10.4,1.4,67,29.41,9.0,ENE,19.6,25.3,N/A,,Overcast,60,2012-10-16 10:36:00
2:56 AM,10.4,1.4,67,29.41,10.0,NE,17.3,25.3,N/A,,Overcast,50,2012-10-16 10:56:00
3:16 AM,10.4,3.2,73,29.42,8.0,NE,17.3,23.0,N/A,,Overcast,50,2012-10-16 11:16:00
3:36 AM,10.4,1.4,67,29.42,10.0,NE,17.3,23.0,N/A,,Overcast,50,2012-10-16 11:36:00
3:56 AM,10.4,1.4,67,29.42,7.0,NE,16.1,23.0,N/A,,Overcast,50,2012-10-16 11:56:00
4:16 AM,10.4,3.2,73,29.43,3.0,NE,16.1,20.7,N/A,,Overcast,50,2012-10-16 12:16:00
4:36 AM,10.4,3.2,73,29.43,5.0,NE,13.8,-,N/A,,Mostly Cloudy,40,2012-10-16 12:36:00
4:56 AM,10.4,3.2,73,29.43,8.0,NNE,11.5,18.4,N/A,,Overcast,30,2012-10-16 12:56:00
5:16 AM,10.4,3.2,73,29.43,7.0,NNE,10.4,16.1,N/A,,Overcast,30,2012-10-16 13:16:00
5:36 AM,10.4,3.2,73,29.43,4.0,NNE,10.4,-,N/A,,Overcast,30,2012-10-16 13:36:00
5:56 AM,10.4,3.2,73,29.44,4.0,NNE,11.5,-,N/A,,Overcast,30,2012-10-16 13:56:00
6:16 AM,10.4,5.0,79,29.44,3.0,NE,13.8,-,N/A,,Overcast,40,2012-10-16 14:16:00
6:36 AM,10.4,5.0,79,29.44,3.0,NE,12.7,-,N/A,,Overcast,50,2012-10-16 14:36:00
6:56 AM,10.4,5.0,79,29.44,2.5,NE,12.7,18.4,N/A,,Overcast,50,2012-10-16 14:56:00
7:16 AM,10.4,5.0,79,29.44,4.0,NE,12.7,-,N/A,,Overcast,50,2012-10-16 15:16:00
7:36 AM,12.2,5.0,73,29.45,4.0,NE,11.5,-,N/A,,Overcast,40,2012-10-16 15:36:00
7:56 AM,12.2,5.0,73,29.45,3.0,NE,9.2,-,N/A,,Overcast,40,2012-10-16 15:56:00
8:16 AM,12.2,6.8,79,29.45,3.0,NE,10.4,-,N/A,,Overcast,40,2012-10-16 16:16:00
8:36 AM,12.2,6.8,79,29.46,3.0,NE,11.5,-,N/A,,Overcast,50,2012-10-16 16:36:00
8:56 AM,12.2,6.8,79,29.46,2.0,NE,10.4,-,N/A,,Overcast,50,2012-10-16 16:56:00
9:16 AM,12.2,6.8,79,29.47,2.0,NE,11.5,-,N/A,,Overcast,50,2012-10-16 17:16:00
9:36 AM,12.2,6.8,79,29.48,2.0,NE,9.2,-,N/A,,Overcast,40,2012-10-16 17:36:00
9:56 AM,12.2,6.8,79,29.48,1.8,NE,9.2,-,N/A,,Overcast,40,2012-10-16 17:56:00
10:16 AM,12.2,6.8,79,29.48,1.2,NE,10.4,-,N/A,,Overcast,50,2012-10-16 18:16:00
10:36 AM,12.2,6.8,79,29.49,2.0,NE,9.2,-,N/A,,Overcast,40,2012-10-16 18:36:00
10:56 AM,14.0,8.6,79,29.49,2.0,NE,9.2,-,N/A,,Overcast,50,2012-10-16 18:56:00
11:16 AM,14.0,6.8,73,29.50,4.0,ENE,9.2,-,N/A,,Overcast,60,2012-10-16 19:16:00
11:36 AM,15.8,8.6,73,29.50,2.0,NNE,10.4,-,N/A,,Overcast,30,2012-10-16 19:36:00
11:56 AM,15.8,8.6,73,29.50,2.5,NNE,9.2,-,N/A,,Overcast,30,2012-10-16 19:56:00
12:16 PM,15.8,8.6,73,29.50,1.8,ENE,9.2,-,N/A,,Overcast,60,2012-10-16 20:16:00
12:36 PM,15.8,8.6,73,29.51,3.0,NE,8.1,-,N/A,,Overcast,40,2012-10-16 20:36:00
1:16 PM,15.8,10.4,79,29.51,1.5,NNE,8.1,-,N/A,,Overcast,20,2012-10-16 21:16:00
1:56 PM,17.6,12.2,79,29.52,1.2,NNE,8.1,-,N/A,,Overcast,30,2012-10-16 21:56:00
2:16 PM,19.4,12.2,74,29.52,2.0,NNE,8.1,-,N/A,,Overcast,30,2012-10-16 22:16:00
2:36 PM,19.4,12.2,74,29.52,2.0,NE,10.4,-,N/A,,Overcast,50,2012-10-16 22:36:00
2:56 PM,19.4,12.2,74,29.52,2.0,NE,6.9,-,N/A,,Overcast,50,2012-10-16 22:56:00
3:16 PM,19.4,14.0,80,29.53,2.0,NNE,6.9,-,N/A,,Overcast,20,2012-10-16 23:16:00
3:36 PM,19.4,14.0,80,29.53,3.0,NE,8.1,-,N/A,,Overcast,50,2012-10-16 23:36:00
3:56 PM,19.4,12.2,74,29.54,5.0,North,8.1,-,N/A,,Overcast,10,2012-10-16 23:56:00
4:16 PM,19.4,12.2,74,29.54,9.0,NE,5.8,-,N/A,,Overcast,40,2012-10-17 00:16:00
4:36 PM,21.2,12.2,68,29.54,8.0,NE,9.2,-,N/A,,Overcast,50,2012-10-17 00:36:00
4:56 PM,21.2,12.2,68,29.55,6.0,NE,10.4,-,N/A,,Overcast,50,2012-10-17 00:56:00
5:16 PM,19.4,12.2,74,29.56,10.0,ENE,11.5,16.1,N/A,,Overcast,60,2012-10-17 01:16:00
5:36 PM,19.4,12.2,74,29.57,10.0,ENE,9.2,-,N/A,,Overcast,60,2012-10-17 01:36:00
5:56 PM,19.4,12.2,74,29.57,9.0,NE,10.4,-,N/A,,Overcast,40,2012-10-17 01:56:00
6:16 PM,19.4,12.2,74,29.58,5.0,NE,10.4,-,N/A,,Overcast,40,2012-10-17 02:16:00
6:36 PM,19.4,12.2,74,29.58,5.0,NNE,10.4,-,N/A,,Overcast,30,2012-10-17 02:36:00
6:56 PM,19.4,12.2,74,29.59,4.0,NNE,8.1,-,N/A,,Overcast,20,2012-10-17 02:56:00
7:16 PM,19.4,12.2,74,29.59,4.0,NNE,9.2,-,N/A,,Overcast,30,2012-10-17 03:16:00
7:36 PM,19.4,12.2,74,29.60,5.0,NNE,9.2,-,N/A,,Overcast,30,2012-10-17 03:36:00
7:56 PM,19.4,12.2,74,29.60,5.0,NE,11.5,-,N/A,,Overcast,40,2012-10-17 03:56:00
8:16 PM,19.4,12.2,74,29.60,5.0,NE,10.4,-,N/A,,Overcast,40,2012-10-17 04:16:00
8:36 PM,19.4,12.2,74,29.61,4.0,NE,12.7,-,N/A,,Overcast,40,2012-10-17 04:36:00
8:56 PM,19.4,12.2,74,29.61,4.0,NE,9.2,-,N/A,,Overcast,40,2012-10-17 04:56:00
9:16 PM,19.4,12.2,74,29.62,4.0,NE,8.1,-,N/A,,Overcast,40,2012-10-17 05:16:00
9:36 PM,19.4,12.2,74,29.62,5.0,NE,11.5,-,N/A,,Overcast,40,2012-10-17 05:36:00
9:56 PM,19.4,12.2,74,29.63,4.0,NE,12.7,-,N/A,,Overcast,50,2012-10-17 05:56:00
10:16 PM,19.4,14.0,80,29.63,4.0,NE,12.7,-,N/A,,Overcast,50,2012-10-17 06:16:00
10:36 PM,19.4,14.0,80,29.64,4.0,NE,11.5,-,N/A,,Overcast,40,2012-10-17 06:36:00
10:56 PM,19.4,12.2,74,29.65,3.0,NE,8.1,-,N/A,,Overcast,40,2012-10-17 06:56:00
11:16 PM,19.4,14.0,80,29.65,4.0,NE,9.2,-,N/A,,Overcast,40,2012-10-17 07:16:00
11:36 PM,19.4,14.0,80,29.65,2.5,NE,10.4,-,N/A,,Overcast,40,2012-10-17 07:36:00
11:56 PM,19.4,14.0,80,29.66,2.0,NE,10.4,-,N/A,,Overcast,40,2012-10-17 07:56:00